{"data":{"norad_id":67503,"epoch":"2026-05-24T23:53:39.998976Z","epoch_age_seconds":71324,"freshness":"FRESH","line1":"1 67503U 26012L   26144.99560184  .00013995  00000+0  51703-3 0  9996","line2":"2 67503  42.9989 243.3097 0001499 291.0868  68.9823 15.27585116 19433","mean_motion":15.27585116,"eccentricity":0.0001499,"inclination_deg":42.9989,"raan_deg":243.3097,"arg_perigee_deg":291.0868,"mean_anomaly_deg":68.9823,"bstar":0.00051703,"rev_number":1943,"period_min":94.266433007063,"perigee_km":482.00528743847,"apogee_km":484.0622664374,"semimajor_km":6861.1707769379,"source":"CELESTRAK","updated_at":"2026-05-25T13:38:21.568459Z"}}